Location: Glencoe Junction
(41.7313°N, 110.5602°W)
Time: 09:13:41
(UTC+00:00)

Tiangong - Pass Details

Date: 29 January 2022
Orbit: 386 x 388 km, 41.5° (Epoch: 25 May)

Event Time Altitude Azimuth Distance (km) Brightness Sun altitude
Rises 00:57:32 0° 227° (SW) 2,342 6.5 -5.1°
Reaches altitude 10° 00:59:48 10° 215° (SW) 1,489 5.0 -5.5°
Maximum altitude 01:02:44 28° 154° (SSE) 824 2.7 -6.0°
Drops below altitude 10° 01:05:43 10° 94° (E) 1,510 3.5 -6.6°
Enters shadow 01:06:15 - 90° (E) 1,703 3.7 -6.6°
